Location: Wanzleben
(52.0609°N, 11.4408°E)
Time: 16:22:15
(UTC+00:00)

Envisat - Pass Details

Date: 28 November 2020
Orbit: 764 x 766 km, 98.1° (Epoch: 20 January)

Event Time Altitude Azimuth Distance (km) Brightness Sun altitude
Rises 16:47:50 0° 186° (S) 3,222 6.5 -14.6°
Reaches altitude 10° 16:50:16 10° 194° (SSW) 2,300 5.9 -15.0°
Maximum altitude 16:55:01 39° 263° (W) 1,138 4.5 -15.7°
Drops below altitude 10° 16:59:48 10° 333° (NNW) 2,317 5.6 -16.4°
Sets 17:02:16 0° 341° (NNW) 3,248 6.3 -16.8°
